Flag for Canada Weather past 2 weeks in Thompson, Manitoba, Canada

Now
-9 °F

Clear.


Feels Like: -9 °F
Forecast: -8 / 13 °F
Wind: 2 mph from North

Location: Thompson

Current Time: Mar 6, 2015 at 10:34:35 PM

Latest Report: Mar 6, 2015 at 10:00 PM


Visibility: 15 mi

Pressure: 30.06 "Hg

Humidity: 70%

Dew point: -17 °F

Location of ThompsonLocation

Historic Weather in Thompson — Graph

°F

Thompson temperature yesterday

Maximum temperature yesterday: 12 °F (at 3:00 PM)
Minimum temperature yesterday: -24 °F (at 3:00 AM)
Average temperature yesterday: -3 °F

Past Weeks' High & Low Weather Summary

 TemperatureHumidityPressure
High23 °F (Mar 2, 3:00 PM)93% (Mar 2, 7:53 PM)30.67 "Hg (Mar 2, 7:53 PM)
Low-33 °F (Feb 21, 8:00 AM)31% (Feb 26, 3:00 PM)29.50 "Hg (Feb 23, 1:00 PM)
Average-4 °F63%30.09 "Hg
* Reported Feb 19 9:00 PM — Mar 6 9:00 PM, Thompson, Weather by CustomWeather, © 2015

Note: Actual official high and low records may vary slightly from our data, if they occured in-between our weather recording intervals... More about our weather records

Advertising

Thompson weather history for previous 24 hours

 ConditionsComfort  
Time TempWeatherWind HumidityBarometerVisibility
9:00 PM
Fri, Mar 6
-4 °FClear.3 mph71%30.04 "Hg15 mi
8:00 PM1 °FClear.5 mph60%30.03 "Hg15 mi
7:00 PM5 °FPassing clouds.5 mph55%30.00 "Hg15 mi
6:00 PM10 °FPassing clouds.7 mph47%29.96 "Hg15 mi
5:00 PM12 °FPassing clouds.8 mph48%29.93 "Hg15 mi
4:00 PM12 °FPassing clouds.10 mph48%29.91 "Hg15 mi
3:00 PM12 °FLight snow. Partly sunny.12 mph48%29.89 "Hg15 mi
2:00 PM10 °FLight snow. Partly sunny.9 mph52%29.88 "Hg12 mi
1:00 PM9 °FLight snow. Mostly cloudy.6 mph61%29.89 "Hg8 mi
12:00 PM7 °FLight snow. Mostly cloudy.7 mph56%29.88 "Hg15 mi
11:00 AM5 °FLight snow. Partly sunny.6 mph60%29.89 "Hg15 mi
10:00 AM3 °FPartly sunny.3 mph66%29.88 "Hg15 mi
9:00 AM-2 °FPartly sunny.2 mph77%29.88 "Hg15 mi
8:00 AM-2 °FPartly sunny.No wind77%29.88 "Hg15 mi
7:00 AM-4 °FPassing clouds.3 mph77%29.88 "Hg15 mi
6:00 AM-2 °FPassing clouds.5 mph84%29.86 "Hg15 mi
5:00 AM0 °FClear.6 mph78%29.85 "Hg15 mi
4:00 AM1 °FClear.5 mph71%29.84 "Hg15 mi
3:00 AM5 °FClear.9 mph72%29.82 "Hg15 mi
2:00 AM3 °FClear.6 mph72%29.80 "Hg15 mi
1:00 AM5 °FClear.7 mph72%29.78 "Hg15 mi
12:00 AM7 °FClear.3 mph66%29.78 "Hg15 mi
11:00 PM
Thu, Mar 5
9 °FClear.10 mph66%29.77 "Hg15 mi
10:00 PM5 °FPassing clouds.8 mph66%29.75 "Hg15 mi
Weather by CustomWeather, © 2015

See weather overviewHow to use our weather pages